Change the Weather History Date:

Tuesday, November 15, 2011

  Actual Average Record
Temperature  
Mean Temperature 49 °F 41 °F  
Max Temperature 56 °F 48 °F 71 °F (1928)
Min Temperature 42 °F 33 °F 10 °F (1933)
Degree Days  
Heating Degree Days 16 24  
Month to date heating degree days 243 327  
Since 1 July heating degree days 749 960  
Cooling Degree Days 0 0  
Month to date cooling degree days 0 0  
Year to date cooling degree days 695 539  
Moisture  
Dew Point 45 °F    
Average Humidity 81    
Maximum Humidity 100    
Minimum Humidity 61    
Precipitation  
Precipitation 0.00 in 0.10 in 1.53 in (1973)
Month to date precipitation 0.41 1.43  
Year to date precipitation 35.92 30.13  
Snow  
Snow 0.00 in 0.20 in 11.30 in (1995)
Month to date snowfall T 2.3  
Since 1 July snowfall T 2.4  
Since 1 September snowfall T 2.4  
Snow Depth 0.00 in    
Sea Level Pressure  
Sea Level Pressure 29.79 in    
Wind  
Wind Speed 6 mph (WSW)    
Max Wind Speed 14 mph    
Max Gust Speed 20 mph    
Visibility 9 miles    
Events      
T = Trace of Precipitation, MM = Missing Value Source: NWS Daily Summary

Daily Weather History Graph

Daily Weather History Graph

Search for Another Location

Airport or City:

Trip Planner

Search our weather history database for the weather conditions in past years. The results will help you decide how hot, cold, wet, or windy it might be!

Date:

Astronomy

Nov. 15, 2011 Rise Set
Actual Time 7:03 AM EST 4:47 PM EST
Civil Twilight 6:32 AM EST 5:17 PM EST
Nautical Twilight 5:57 AM EST 5:52 PM EST
Astronomical Twilight 5:24 AM EST 6:25 PM EST
Moon 8:53 PM EST (11/15) 11:02 AM EST (11/15)
Length of Visible Light 10h 45m
Length of Day
9h 43m
Waning Gibbous, 79% of the Moon is Illuminated
Nov 15
Waning Gibbous
Nov 18
Last Quarter
Nov 25
New
Dec 2
First Quarter
Dec 10
Full

Hourly Weather History & Observations

Time (EST) Temp. Windchill Dew Point Humidity Pressure Visibility Wind Dir Wind Speed Gust Speed Precip Events Conditions
12:24 AM 48.2 °F - 46.4 °F 93% 29.64 in 9.0 mi West 6.9 mph - N/A   Overcast
12:37 AM 48.2 °F - 46.4 °F 93% 29.65 in 8.0 mi West 9.2 mph - N/A   Overcast
12:54 AM 48.9 °F - 48.0 °F 97% 29.65 in 7.0 mi West 6.9 mph - N/A   Overcast
1:13 AM 48.2 °F - 48.2 °F 100% 29.65 in 7.0 mi West 4.6 mph - N/A   Overcast
1:54 AM 50.0 °F - 48.0 °F 93% 29.67 in 7.0 mi West 5.8 mph - N/A   Overcast
2:54 AM 51.1 °F - 48.0 °F 89% 29.70 in 8.0 mi West 11.5 mph - N/A   Overcast
3:01 AM 51.8 °F - 48.2 °F 88% 29.70 in 8.0 mi WNW 10.4 mph - N/A   Overcast
3:54 AM 51.1 °F - 48.0 °F 89% 29.72 in 9.0 mi WNW 13.8 mph - N/A   Overcast
4:52 AM 50.0 °F - 46.4 °F 87% 29.75 in 9.0 mi West 6.9 mph - N/A   Overcast
4:54 AM 50.0 °F - 46.9 °F 89% 29.75 in 9.0 mi WNW 8.1 mph - N/A   Overcast
5:54 AM 50.0 °F - 46.9 °F 89% 29.76 in 8.0 mi West 5.8 mph - N/A   Overcast
6:54 AM 48.9 °F - 46.9 °F 93% 29.78 in 7.0 mi South 3.5 mph - N/A   Overcast
7:54 AM 48.0 °F - 46.9 °F 96% 29.81 in 6.0 mi SW 3.5 mph - N/A   Overcast
8:54 AM 50.0 °F - 46.9 °F 89% 29.83 in 9.0 mi SW 4.6 mph - N/A   Overcast
9:54 AM 51.1 °F - 46.9 °F 86% 29.84 in 10.0 mi SW 4.6 mph - N/A   Overcast
10:54 AM 52.0 °F - 46.9 °F 83% 29.85 in 10.0 mi SW 6.9 mph - N/A   Overcast
11:54 AM 54.0 °F - 45.0 °F 72% 29.84 in 10.0 mi West 10.4 mph - N/A   Overcast
12:54 PM 55.0 °F - 44.1 °F 67% 29.83 in 10.0 mi West 8.1 mph - N/A   Overcast
1:54 PM 55.9 °F - 45.0 °F 67% 29.83 in 10.0 mi SW 8.1 mph - N/A   Overcast
2:54 PM 55.9 °F - 43.0 °F 62% 29.83 in 10.0 mi WSW 8.1 mph - N/A   Mostly Cloudy
3:54 PM 54.0 °F - 44.1 °F 69% 29.84 in 10.0 mi SW 4.6 mph - N/A   Mostly Cloudy
4:54 PM 53.1 °F - 43.0 °F 69% 29.85 in 10.0 mi Calm Calm - N/A   Scattered Clouds
5:54 PM 48.9 °F - 43.0 °F 80% 29.87 in 10.0 mi SSW 4.6 mph - N/A   Partly Cloudy
6:54 PM 46.0 °F - 42.1 °F 86% 29.88 in 10.0 mi Calm Calm - N/A   Clear
7:54 PM 44.1 °F 42.5 °F 41.0 °F 89% 29.89 in 10.0 mi South 3.5 mph - N/A   Partly Cloudy
8:54 PM 42.1 °F 40.2 °F 39.9 °F 92% 29.89 in 10.0 mi SSW 3.5 mph - N/A   Partly Cloudy
9:54 PM 44.1 °F 41.5 °F 41.0 °F 89% 29.90 in 10.0 mi SW 4.6 mph - N/A   Partly Cloudy
10:54 PM 46.9 °F - 43.0 °F 86% 29.88 in 10.0 mi SW 8.1 mph - N/A   Scattered Clouds
11:54 PM 48.0 °F - 43.0 °F 83% 29.88 in 10.0 mi SW 8.1 mph - N/A   Scattered Clouds